Lexington Weather

Lexington, Massachusetts, USA

54°F
12/10/2019 3:54pm 
  • Lexington Conditions: Light rain, Overcast
  • Temperature: 54.3°F / 12.4°CColder 0.9°F than last hour.
  • Dew Point: 52.7°FDecreased 0.2°Fsince last hour.
  • Relative Humidity: 94%Increased 2.0% since last hour.
  • Wind: Wind from SSW SSW 2 mph, 10-min avg: 4 mph, gust: 8 mph
  • Barometer: 29.68 inFalling 0.02  inHg/hr Falling Slowly
  • Visibility: 10 miles
  • Rain Today: 0.04 in
  •   

Regional Weather Roundup
for Boston / Norton, MA

        
000
ASUS41 KBOX 090700
RWRBOX

REGIONAL WEATHER ROUNDUP
NATIONAL WEATHER SERVICE BOSTON/NORTON MA
200 AM EST MON DEC 09 2019

NOTE:  "FAIR" INDICATES FEW OR NO CLOUDS BELOW 12,000 FEET WITH NO 
SIGNIFICANT WEATHER AND/OR OBSTRUCTIONS TO VISIBILITY.

MAZALL-090800-
EASTERN MASSACHUSETTS
  
CITY           SKY/WX    TMP DP  RH WIND       PRES   REMARKS
BOSTON         CLOUDY    43  33  68 SW15      30.29F                  
BEVERLY        FAIR      43  33  68 SW13G24   30.27F                  
LAWRENCE       FAIR      38  31  76 SW9G18    30.28F WCI  31          
BEDFORD        FAIR      38  31  76 SW13      30.28R WCI  30          
BLUE HILL        N/A     38  33  82 S20G26    30.26F WCI  28          
NORWOOD        FAIR      42  32  67 S7        30.30F                  
MARSHFIELD     NOT AVBL                                               
PLYMOUTH       FAIR      43  36  76 S8        30.31F                  
TAUNTON        FAIR      29  27  92 S3        30.32F                  
NEW BEDFORD    FAIR      45  36  70 S13       30.32F                  
$$

MAZALL-090800-
CAPE COD AND THE ISLANDS
  
CITY           SKY/WX    TMP DP  RH WIND       PRES   REMARKS
FALMOUTH       NOT AVBL                                               
HYANNIS        NOT AVBL                                               
CHATHAM        FAIR      43  38  82 S8        30.37F                  
PROVINCETOWN   FAIR      45  38  76 S16G23    30.33F                  
NANTUCKET      FAIR      46  41  82 S14       30.37F                  
MARTHAS VNYRD  FAIR      47  40  76 S13       30.34F                  
$$
 
MAZALL-090800-
CENTRAL AND WESTERN MASSACHUSETTS
  
CITY           SKY/WX    TMP DP  RH WIND       PRES   REMARKS
WORCESTER      CLOUDY    36  32  85 SW18      30.26S WCI  26          
FITCHBURG      FAIR      39  32  76 S13       30.26F WCI  31          
ORANGE         CLOUDY    38  32  79 S8        30.26F                  
SPRINGFIELD    CLOUDY    34  30  84 S12       30.27F WCI  26          
WESTFIELD      CLOUDY    30  24  78 SW9       30.28F WCI  22          
NORTH ADAMS    CLOUDY    40  30  67 VRB3G20   30.21F                  
PITTSFIELD     CLOUDY    39  30  70 VRB6G18   30.20F                  
$$
 
RIZALL-090800-
RHODE ISLAND
  
CITY           SKY/WX    TMP DP  RH WIND       PRES   REMARKS
PROVIDENCE     MOCLDY    31  29  92 CALM      30.32F                  
NEWPORT        MOCLDY    48  39  71 S13       30.32F                  
BLOCK ISLAND   CLOUDY    49  41  74 S15G23    30.32S                  
SMITHFIELD     MOCLDY    36  34  92 SW5       30.30F                  
WESTERLY       CLOUDY    50  40  68 S9        30.32F                  
$$
 
CTZALL-090800-
CONNECTICUT
  
CITY           SKY/WX    TMP DP  RH WIND       PRES   REMARKS
BRADLEY INTL   CLOUDY    32  23  69 CALM      30.29F                  
HARTFORD       CLOUDY    30  27  88 CALM      30.30F                  
BRIDGEPORT     CLOUDY    38  35  89 CALM      30.30F                  
DANBURY        LGT RAIN  34  31  88 SW3       30.30F FOG              
GROTON         NOT AVBL                                               
NEW HAVEN      CLOUDY    40  37  89 CALM      30.30F                  
CHESTER        CLOUDY    41  39  93 CALM      30.29F                  
MERIDEN        CLOUDY    32  30  92 CALM      30.30F                  
WILLIMANTIC    MIX PCPN  26  21  81 CALM      30.33F                  
OXFORD         LGT RAIN  36  34  92 S6        30.28F WCI  31          
$$

MEZ002-015-021-024-NHZ003-005-008-011-012-014-VTZ005-008-090800-
NORTHERN NEW ENGLAND
  
CITY           SKY/WX    TMP DP  RH WIND       PRES   REMARKS
PORTLAND ME    CLOUDY    36  25  64 SW3       30.27F                  
BANGOR ME      MOCLDY    37  28  70 S8G18     30.23R WCI  31          
CONCORD NH     CLOUDY    32  25  75 S5        30.24F WCI  27          
MANCHESTER NH  CLOUDY    33  28  81 S5        30.23F WCI  29          
NASHUA NH      FAIR      38  35  89 VRB3      30.26S                  
PORTSMOUTH NH  NOT AVBL                                               
JAFFREY NH     CLOUDY    37  32  82 SW8       30.22S WCI  31          
KEENE NH       CLOUDY    38  33  82 S12G17    30.24F WCI  30          
BURLINGTON VT  FAIR      37  24  59 S24G33    30.11S WCI  26          
MT. WASHINGTON NOT AVBL                                               
$$

NYZ052-076-090800-
EASTERN NEW YORK
  
CITY           SKY/WX    TMP DP  RH WIND       PRES   REMARKS
ALBANY         CLOUDY    39  27  62 S10       30.20F                  
NEW YORK CITY  LGT RAIN  43  39  86 S3        30.29F FOG              
$$
 
ANZALL-090800-
MARINE OBSERVATIONS
  
STATION/POSITION TIME  TEMP    WIND        PRES    VSBY  WAVE
                       AIR SEA DIR/SP/G                  HT/PER
                 (UTC) (F)     (DEG/KT/KT) (MB)    (MI)  (FT/S)
BOSTON BUOY      0550   43 47  190/ 21/ 25 1025.5          2/ 5
BUZZARDS BAY     0600   48     200/ 23/ 24 1027.4F
NANTUCKET SOUND  0640   44 42                N/A
MASS BAY-STELLWA 0604   43 46  240/ 19/ 23 1024.5F  1 7/8  4/ 5
ISLE OF SHOALS   0600   39     220/ 21/ 23 1024.9F
S OF BLOCK IS    0630      51                N/A           5/ 6
$$

......................KEY.........................
  SKY/WX - SKY CONDITION/PRESENT WEATHER
  TMP    - TEMPERATURE IN FAHRENHEIT
  DWPT   - DEWPOINT IN FAHRENHEIT
  RH     - RELATIVE HUMIDITY IN PERCENT
  WIND   - DIRECTION AND SPEED IN MPH
  PRES   - MEAN SEA LEVEL PRESSURE IN INCHES OF HG
  WCI    - WIND CHILL INDEX
  VSB    - VISIBILITY IN MILES
  HX     - HEAT INDEX
  TC     - TEMPERATURE IN CELSIUS
  VRB    - VARIABLE WIND DIRECTION
  N/A    - NOT AVAILABLE
  
      

Other recent Regional Weather Roundups

Tue Dec 10, 3:10pm

Tue Dec 10, 3:01pm

Tue Dec 10, 2:10pm

Tue Dec 10, 2:01pm

Tue Dec 10, 1:10pm

Tue Dec 10, 1:00pm

Tue Dec 10, 12:10pm

Tue Dec 10, 12:00pm

Tue Dec 10, 11:10am

Tue Dec 10, 11:00am

Tue Dec 10, 10:10am

Tue Dec 10, 10:00am

Tue Dec 10, 9:10am

Tue Dec 10, 9:01am

Tue Dec 10, 8:10am

Tue Dec 10, 8:00am

Tue Dec 10, 7:10am

Tue Dec 10, 7:00am

Tue Dec 10, 6:10am

Tue Dec 10, 6:00am

Tue Dec 10, 5:10am

Tue Dec 10, 5:00am

Tue Dec 10, 4:10am

Tue Dec 10, 4:00am

Tue Dec 10, 3:10am

Tue Dec 10, 3:00am

Tue Dec 10, 2:10am

Tue Dec 10, 2:01am

Tue Dec 10, 1:10am

Tue Dec 10, 1:00am

Tue Dec 10, 12:10am

Tue Dec 10, 12:01am

Mon Dec 9, 11:10pm

Mon Dec 9, 11:01pm

Mon Dec 9, 10:10pm

Mon Dec 9, 10:00pm

Mon Dec 9, 9:10pm

Mon Dec 9, 9:01pm

Mon Dec 9, 8:10pm

Mon Dec 9, 8:01pm

Mon Dec 9, 7:10pm

Mon Dec 9, 7:00pm

Mon Dec 9, 6:10pm

Mon Dec 9, 6:00pm

Mon Dec 9, 5:10pm

Mon Dec 9, 5:01pm

Mon Dec 9, 4:10pm

Mon Dec 9, 4:01pm

Mon Dec 9, 3:10pm

Mon Dec 9, 3:01pm

Mon Dec 9, 2:10pm

Mon Dec 9, 2:00pm

Mon Dec 9, 1:10pm

Mon Dec 9, 1:00pm

Mon Dec 9, 12:10pm

Mon Dec 9, 12:00pm

Mon Dec 9, 11:10am

Mon Dec 9, 11:00am

Mon Dec 9, 10:10am

Mon Dec 9, 10:00am

Mon Dec 9, 9:10am

Mon Dec 9, 9:00am

Mon Dec 9, 8:10am

Mon Dec 9, 8:00am

Mon Dec 9, 7:10am

Mon Dec 9, 7:00am

Mon Dec 9, 6:10am

Mon Dec 9, 6:00am

Mon Dec 9, 5:10am

Mon Dec 9, 5:00am

Mon Dec 9, 4:10am

Mon Dec 9, 4:00am

Mon Dec 9, 3:10am

Mon Dec 9, 3:00am

Mon Dec 9, 2:10am

Mon Dec 9, 1:10am

Mon Dec 9, 1:00am

Mon Dec 9, 12:10am

Mon Dec 9, 12:00am

Sun Dec 8, 11:10pm

Sun Dec 8, 11:00pm

Sun Dec 8, 10:10pm

Sun Dec 8, 10:01pm

Sun Dec 8, 9:10pm

Sun Dec 8, 9:01pm

Sun Dec 8, 8:10pm

Sun Dec 8, 8:00pm

Sun Dec 8, 7:10pm

Sun Dec 8, 7:00pm

Sun Dec 8, 6:10pm

Sun Dec 8, 6:01pm

Sun Dec 8, 5:10pm

Sun Dec 8, 5:00pm

Sun Dec 8, 4:10pm

Sun Dec 8, 4:01pm

Sun Dec 8, 3:10pm

Sun Dec 8, 3:01pm

Sun Dec 8, 2:10pm

Sun Dec 8, 2:01pm

Sun Dec 8, 1:10pm

Sun Dec 8, 1:00pm

Sun Dec 8, 12:10pm

Sun Dec 8, 12:01pm

Sun Dec 8, 11:10am

Sun Dec 8, 11:00am

Sun Dec 8, 10:10am

Sun Dec 8, 10:01am

Sun Dec 8, 9:10am

Sun Dec 8, 9:00am

Sun Dec 8, 8:10am

Sun Dec 8, 8:00am

Sun Dec 8, 7:10am

Sun Dec 8, 7:00am

Sun Dec 8, 6:10am

Sun Dec 8, 6:00am

Sun Dec 8, 5:10am

Sun Dec 8, 5:00am

Sun Dec 8, 4:10am

Sun Dec 8, 4:00am

Sun Dec 8, 3:10am

Sun Dec 8, 3:00am

Sun Dec 8, 2:10am

Sun Dec 8, 2:00am

Sun Dec 8, 1:10am

Sun Dec 8, 1:00am

Sun Dec 8, 12:10am

Sun Dec 8, 12:01am

Sat Dec 7, 11:10pm

Sat Dec 7, 11:00pm

Sat Dec 7, 10:10pm

Sat Dec 7, 10:00pm

Sat Dec 7, 9:10pm

Sat Dec 7, 9:00pm

Sat Dec 7, 8:10pm

Sat Dec 7, 8:00pm

Sat Dec 7, 7:10pm

Sat Dec 7, 7:00pm

Sat Dec 7, 6:10pm

Sat Dec 7, 6:00pm

Sat Dec 7, 5:10pm

Sat Dec 7, 5:00pm

Sat Dec 7, 4:10pm

Sat Dec 7, 4:00pm

Meta data:

ID: 197332ee-e237-4b79-9983-1d71fc155533
Link: https://api.weather.gov/products/197332ee-e237-4b79-9983-1d71fc155533